TimePDT,TemperatureF,Dew PointF,Humidity,Sea Level PressureIn,VisibilityMPH,Wind Direction,Wind SpeedMPH,Gust SpeedMPH,PrecipitationIn,Events,Conditions,WindDirDegrees,DateUTC
12:00 AM,55.4,29.5,37,30.31,-9999.0,NE,18.4,-,N/A,,Unknown,40,2012-10-05 07:00:00
1:00 AM,54.3,29.1,38,30.32,-9999.0,NNE,16.1,21.9,N/A,,Unknown,30,2012-10-05 08:00:00
2:00 AM,53.2,29.8,41,30.33,-9999.0,NE,17.3,-,N/A,,Unknown,40,2012-10-05 09:00:00
3:00 AM,53.1,29.7,41,30.34,-9999.0,NNE,16.1,-,N/A,,Unknown,20,2012-10-05 10:00:00
4:00 AM,52.7,30.0,42,30.33,-9999.0,NNE,17.3,-,N/A,,Unknown,20,2012-10-05 11:00:00
5:00 AM,53.4,30.0,41,30.33,-9999.0,NNE,13.8,20.7,N/A,,Unknown,20,2012-10-05 12:00:00
6:00 AM,53.6,36.5,52,30.34,-9999.0,North,12.7,-,N/A,,Unknown,10,2012-10-05 13:00:00
7:00 AM,53.2,31.6,44,30.35,-9999.0,NNE,8.1,-,N/A,,Unknown,20,2012-10-05 14:00:00
8:00 AM,54.0,33.8,46,30.36,-9999.0,NNW,6.9,-,N/A,,Unknown,340,2012-10-05 15:00:00
9:00 AM,55.6,36.1,48,30.37,-9999.0,North,6.9,-,N/A,,Unknown,360,2012-10-05 16:00:00
10:00 AM,58.3,35.6,43,30.36,-9999.0,North,9.2,19.6,N/A,,Unknown,350,2012-10-05 17:00:00
11:00 AM,60,34,26,30.35,,NW,13.8,,,,,320,2012-10-05 18:00:00
11:00 AM,60.1,34.0,38,30.35,-9999.0,NW,13.8,23.0,N/A,,Unknown,320,2012-10-05 18:00:00
12:00 PM,63.1,32.0,31,30.34,-9999.0,NW,9.2,20.7,N/A,,Unknown,310,2012-10-05 19:00:00
1:00 PM,64.8,32.9,30,30.32,-9999.0,NNW,12.7,20.7,N/A,,Unknown,330,2012-10-05 20:00:00
2:00 PM,68.0,31.6,26,30.29,-9999.0,NNW,10.4,21.9,N/A,,Unknown,330,2012-10-05 21:00:00
3:00 PM,69.3,34.0,27,30.27,-9999.0,NNW,8.1,-,N/A,,Unknown,330,2012-10-05 22:00:00
4:00 PM,69.6,33.1,26,30.25,-9999.0,NNW,9.2,17.3,N/A,,Unknown,330,2012-10-05 23:00:00
5:00 PM,70,33,15,30.25,,NNE,3.5,,,,,30,2012-10-06 00:00:00
5:00 PM,69.8,32.9,26,30.25,-9999.0,NNE,3.5,-,N/A,,Unknown,30,2012-10-06 00:00:00
6:00 PM,68.4,31.1,25,30.23,-9999.0,NW,6.9,-,N/A,,Unknown,310,2012-10-06 01:00:00
7:00 PM,67.1,31.3,26,30.24,-9999.0,NNW,4.6,-,N/A,,Unknown,340,2012-10-06 02:00:00
8:00 PM,64.6,31.8,29,30.24,-9999.0,NNE,4.6,-,N/A,,Unknown,30,2012-10-06 03:00:00
9:00 PM,63.0,31.8,31,30.24,-9999.0,NNE,9.2,-,N/A,,Unknown,30,2012-10-06 04:00:00
10:00 PM,59.7,34.5,39,30.25,-9999.0,NE,8.1,-,N/A,,Unknown,40,2012-10-06 05:00:00
11:00 PM,60,33,24,30.26,,NE,11.5,,,,,50,2012-10-06 06:00:00
11:00 PM,60.4,31.3,33,30.26,-9999.0,NE,11.5,-,N/A,,Unknown,50,2012-10-06 06:00:00